Wind_Speed
4 3 2 2 2 3 1 4 7 8 8 8 9 10 11 11 11 12 13 13 11 10 10 10 10 11 11 11 10 10 10 10 10 10 10 10 11 11 11 11 11 11 11 10 10 10 10 10 10
4 3 2 2 2 1 3 4 7 9 9 9 9 11 11 11 12 13 14 13 13 12 11 11 10 10 10 10 10 10 10 10 10 11 11 11 11 11 11 11 11 12 12 11 11 11 11 11 11
4 3 2 1 0 2 6 6 7 10 10 10 10 11 12 12 12 13 14 14 14 12 12 11 10 10 10 10 11 11 11 11 11 11 11 11 11 11 11 11 11 12 12 12 12 11 12 12 12
5 3 2 1 1 5 8 8 8 9 11 11 11 12 13 13 14 14 14 14 14 13 13 13 12 11 10 10 10 11 11 12 11 11 11 11 12 12 13 12 12 12 12 12 12 12 12 12 13
5 4 1 2 4 6 9 8 8 9 11 12 13 13 13 14 16 15 15 15 15 14 14 14 13 12 11 11 11 12 12 12 12 12 12 12 13 13 14 13 13 13 13 13 14 13 13 13 14
5 3 1 4 8 9 10 11 10 11 11 13 14 14 14 16 16 16 17 17 17 15 14 14 14 13 13 13 12 12 13 13 13 13 13 14 14 15 15 15 13 14 14 13 13 13 14 14 14
4 3 1 5 8 10 11 12 13 14 13 13 14 14 14 15 16 17 17 17 17 18 16 14 14 13 13 13 13 14 14 14 14 15 15 16 16 16 16 16 16 14 14 14 14 14 14 15 15
4 3 1 5 8 12 13 12 14 14 14 14 14 15 16 15 15 16 16 17 17 17 17 14 14 14 14 15 15 15 15 16 17 16 17 17 17 17 16 16 16 16 15 15 15 15 15 16 16
3 2 1 5 10 12 13 14 15 16 16 16 16 18 17 16 15 17 16 17 16 17 17 16 16 16 16 16 16 17 16 17 18 17 18 19 18 18 16 16 16 16 15 15 15 15 15 16 17
3 1 4 8 10 12 13 15 16 17 18 17 17 18 18 17 17 19 18 18 17 18 19 18 17 18 17 18 18 19 18 18 18 18 18 19 19 18 18 18 17 16 16 16 16 16 16 16 17
1 3 7 9 11 11 13 14 15 18 18 16 17 18 18 18 18 19 19 19 18 18 19 19 19 19 19 19 19 20 19 19 19 19 19 19 19 18 18 19 18 18 17 17 17 16 16 17 17
4 6 9 11 11 11 13 15 16 17 17 17 18 18 18 18 19 19 18 18 19 19 20 18 19 19 20 20 20 20 20 20 20 20 21 20 19 19 19 20 20 19 18 18 18 17 17 17 18
5 7 10 12 12 14 15 15 16 17 17 17 17 17 18 19 21 19 18 18 19 20 20 19 21 21 21 21 22 21 21 21 22 23 23 23 23 21 22 21 21 20 19 19 18 19 19 18 18
5 8 9 11 14 16 16 15 17 17 17 17 17 18 19 20 20 19 18 18 19 19 20 20 21 21 21 22 22 22 23 24 24 24 24 24 24 23 23 21 21 20 20 20 19 20 20 19 19
5 7 10 12 14 16 17 17 16 16 17 17 19 18 19 21 19 19 18 18 18 19 19 20 20 21 21 22 22 22 23 23 23 23 24 25 24 23 22 21 21 21 20 20 19 20 20 20 20
6 8 11 12 14 17 18 18 19 18 19 20 21 21 20 20 19 19 19 19 19 20 19 21 22 22 22 22 22 22 23 23 23 24 24 24 23 23 23 22 21 21 21 20 20 21 21 21 21
7 10 11 13 14 17 17 17 19 18 20 21 22 21 21 20 20 20 21 20 20 21 21 22 23 23 23 23 22 23 23 24 25 26 25 25 24 24 24 23 22 22 21 21 21 22 23 23 22
9 11 12 13 14 16 18 18 19 18 19 21 23 22 23 22 21 22 23 23 22 23 23 23 24 25 24 24 24 24 25 25 26 27 27 26 24 25 24 23 23 22 22 22 23 23 23 23 23
12 13 14 14 15 16 18 18 19 20 20 22 23 23 23 23 23 24 24 23 23 23 24 24 25 25 25 25 26 26 26 26 26 27 27 26 25 24 24 23 22 22 22 23 23 23 23 23 24
15 15 16 16 17 17 19 20 19 21 21 23 24 23 24 25 25 25 25 24 23 23 24 25 25 26 25 25 26 26 27 26 26 26 26 26 25 24 24 22 22 23 23 23 23 24 24 24 24
14 16 17 17 17 18 20 20 20 21 22 23 24 25 26 26 26 26 25 23 23 24 24 25 25 25 25 25 25 25 25 25 25 24 25 24 24 24 23 23 23 24 24 24 25 25 25 25 25
15 16 16 17 16 16 16 18 20 21 21 23 23 24 26 25 25 25 24 24 24 24 24 24 24 24 24 24 24 24 24 24 24 24 23 22 22 23 23 23 24 24 24 25 24 24 25 26 25
15 15 14 14 14 13 14 17 18 21 22 23 25 25 24 24 25 24 23 23 24 23 23 23 22 22 22 22 22 23 23 23 23 22 22 22 22 21 21 20 20 21 22 23 23 23 24 25 25
14 14 14 14 14 14 14 15 19 22 21 23 24 24 23 24 23 22 22 23 22 21 21 20 20 19 19 20 21 22 22 22 22 21 21 21 21 21 19 19 20 20 21 22 23 23 23 24 24
13 13 13 13 12 14 15 16 20 22 21 23 23 22 22 22 21 21 21 20 20 19 18 18 18 18 18 19 20 20 21 22 21 20 20 21 21 20 19 19 20 21 22 22 22 21 22 22 23
13 13 12 13 13 14 13 16 20 21 21 22 21 21 22 22 22 22 21 19 18 18 17 16 17 17 18 19 19 19 20 19 18 18 19 19 20 20 20 20 20 21 22 22 22 22 22 23 24
13 13 12 13 13 13 14 16 18 18 20 21 21 21 21 22 21 21 20 18 18 17 16 16 16 17 18 19 19 19 17 17 17 17 17 18 19 20 20 20 21 21 22 22 22 22 23 24 24
13 13 12 12 13 13 14 16 18 20 21 21 22 22 22 21 20 19 19 18 18 17 16 16 16 17 18 19 18 17 16 16 17 18 18 18 18 18 18 19 20 20 20 21 21 22 22 24 24
13 12 12 13 13 14 15 17 18 20 20 21 22 22 21 21 20 19 19 19 18 17 17 17 17 17 17 16 16 16 16 16 17 17 17 16 16 16 17 18 18 19 19 20 20 20 21 22 23
13 12 13 14 14 14 16 17 18 19 20 20 21 21 21 21 20 18 19 19 18 17 17 17 17 16 16 16 15 15 15 16 16 16 15 15 15 17 17 18 18 18 18 18 19 20 21 22 22
Wind_Direction
169 157 148 135 102 89 133 255 282 289 284 285 286 285 284 283 286 290 293 293 294 291 291 287 287 289 289 284 284 283 278 278 280 279 278 277 275 271 267 264 261 259 258 256 256 255 255 255 258
175 178 183 153 87 110 271 271 285 280 287 289 288 288 287 287 287 291 293 295 297 294 292 292 289 287 287 288 284 283 284 281 281 282 282 280 278 274 271 267 264 261 259 258 256 257 259 260 260
179 193 199 193 134 246 264 267 271 277 288 294 294 290 288 289 289 291 294 297 295 296 294 293 289 289 287 290 288 284 285 283 282 282 285 284 282 279 276 271 266 264 263 263 258 257 259 263 264
178 194 230 254 250 260 270 273 275 279 288 293 294 290 289 291 288 286 294 295 295 295 295 294 292 289 288 286 288 287 288 284 283 282 284 284 283 280 280 275 269 266 267 269 264 261 262 265 267
182 194 235 278 269 268 276 283 287 283 285 285 286 287 287 292 289 288 293 297 294 292 293 297 292 289 288 287 286 285 289 287 283 283 283 283 284 283 282 280 276 270 269 269 268 266 267 267 268
186 173 171 262 268 276 275 283 288 285 288 286 286 288 286 287 293 293 291 294 293 293 295 296 293 292 291 290 290 288 290 288 287 286 284 284 282 282 281 282 282 277 273 271 270 270 270 269 270
176 149 192 251 270 277 273 282 288 289 289 285 285 287 293 291 292 293 293 292 293 294 293 293 291 291 294 291 291 290 291 289 287 286 286 286 283 281 282 282 281 279 275 274 275 273 274 273 272
164 142 210 266 275 275 278 288 291 288 290 290 291 290 290 293 291 291 291 290 292 291 288 288 287 289 292 291 290 289 291 289 287 287 288 286 285 284 283 284 282 281 278 278 280 279 278 277 275
156 98 330 274 274 276 288 289 291 293 295 294 294 294 294 294 291 289 288 288 287 286 287 291 291 290 291 292 292 292 291 291 289 288 288 287 285 285 284 283 282 281 280 280 280 279 279 278 277
159 21 285 270 278 290 294 293 296 294 295 295 292 291 292 293 292 289 291 290 287 285 284 288 291 288 287 288 290 289 288 291 291 290 288 286 285 285 283 282 281 282 281 280 280 279 279 280 278
264 295 284 281 280 293 300 298 298 295 297 292 290 289 289 294 291 291 290 290 285 284 286 284 287 289 289 289 288 286 286 290 292 293 292 289 287 286 283 281 283 282 280 280 280 280 281 282 284
296 290 297 297 295 297 304 301 296 292 294 295 294 291 291 296 296 294 290 288 284 282 281 282 288 289 289 290 289 288 288 291 294 292 294 289 289 287 285 283 282 282 280 282 281 281 283 281 284
293 291 289 298 307 307 304 301 297 296 300 298 299 302 302 300 298 293 285 286 286 283 281 285 286 287 289 291 291 289 289 291 293 291 291 289 289 288 286 282 280 279 275 278 280 280 281 283 285
300 291 292 301 304 308 302 299 299 301 300 302 298 297 303 305 302 296 290 288 287 283 284 285 284 285 288 291 292 290 290 290 292 291 289 289 289 288 288 285 281 279 279 278 278 279 281 284 285
319 307 307 304 301 302 302 302 300 301 305 305 305 302 305 305 299 297 295 291 287 285 285 285 281 282 287 290 291 291 292 292 291 290 290 290 289 289 289 286 282 279 278 276 276 279 282 285 286
341 315 306 298 298 302 303 302 305 308 310 313 312 306 303 300 302 299 296 292 289 287 287 285 284 285 288 291 292 292 293 292 290 289 290 289 287 288 288 287 280 279 280 277 278 279 281 283 285
316 295 295 296 303 305 309 308 309 314 310 310 310 307 305 305 305 299 294 291 290 288 287 285 285 286 288 289 289 290 292 292 291 289 288 289 286 287 286 284 280 281 282 279 279 278 280 282 283
299 295 295 296 299 301 305 308 312 312 310 307 308 307 311 311 306 298 296 293 288 289 288 286 286 285 287 287 288 289 293 292 291 288 288 287 287 288 284 280 279 280 280 280 278 278 280 281 283
301 298 301 300 298 300 300 301 305 311 308 306 308 309 311 309 306 301 300 297 294 291 288 288 288 286 286 286 286 289 291 291 289 288 288 287 287 285 280 278 277 278 277 279 276 278 280 281 282
301 302 303 300 302 304 302 304 307 305 303 302 303 306 306 306 306 303 302 300 295 292 289 288 287 286 286 287 286 288 290 290 289 288 287 287 284 281 276 275 275 276 277 277 276 277 279 282 282
298 297 299 298 301 306 306 306 305 304 302 301 303 305 306 305 305 303 303 301 295 293 291 287 287 286 286 287 286 287 289 290 289 291 289 287 284 281 278 277 278 277 276 278 278 277 278 280 281
299 299 302 306 307 306 305 304 302 302 305 305 306 306 307 307 304 302 303 301 298 294 293 291 291 289 287 286 286 288 288 287 288 289 288 286 286 284 284 281 281 281 280 281 281 281 281 281 281
303 302 303 311 315 307 301 295 299 300 301 305 305 307 309 309 306 303 304 303 301 297 295 296 295 294 291 290 287 288 287 286 288 288 286 285 284 283 284 283 282 282 283 283 284 285 285 283 281
310 312 316 316 314 299 292 288 289 292 297 300 303 309 312 311 308 306 307 304 302 300 299 298 298 298 296 294 292 289 287 285 286 287 286 286 285 284 282 283 285 284 285 285 285 285 284 282 282
313 320 323 319 309 300 298 295 289 295 299 303 306 310 312 312 313 314 313 311 308 305 303 302 302 301 301 300 299 296 291 287 286 285 285 286 287 285 282 283 285 285 285 286 288 287 288 287 285
313 318 323 313 305 301 304 299 294 297 304 308 311 314 315 314 315 317 318 318 315 310 307 305 306 304 302 302 303 301 297 292 288 288 287 287 287 284 283 284 285 285 284 285 287 287 288 290 289
313 311 309 308 313 310 300 297 301 303 305 309 314 319 319 317 320 320 319 320 317 314 310 305 307 306 303 303 305 305 302 298 295 295 295 294 292 289 289 287 286 286 286 286 288 287 287 290 291
319 313 305 314 312 304 304 301 299 308 309 312 315 317 320 320 320 321 320 321 316 317 318 314 310 308 305 304 307 308 304 301 298 298 299 298 295 293 292 290 289 289 289 290 291 290 289 291 292
316 311 307 308 308 309 310 311 312 312 312 313 315 319 322 321 321 321 321 322 321 320 320 319 317 315 312 311 310 310 309 306 303 300 298 296 295 294 294 294 293 293 293 294 294 293 294 295 296
319 314 312 315 312 314 313 312 315 315 314 316 319 322 323 323 324 323 324 323 323 324 322 322 321 322 318 315 313 312 312 308 305 303 302 300 300 299 298 297 296 296 296 295 295 297 299 300 299
Height
5875 5877 5877 5879 5880 5880 5881 5882 5881 5880 5880 5879 5879 5878 5877 5877 5877 5878 5875 5872 5871 5871 5871 5871 5870 5870 5870 5869 5869 5868 5868 5867 5867 5866 5866 5865 5864 5864 5863 5863 5862 5862 5862 5862 5862 5862 5862 5863 5863
5875 5876 5877 5878 5879 5880 5881 5880 5881 5879 5878 5877 5877 5876 5875 5875 5875 5874 5872 5871 5871 5870 5870 5869 5869 5868 5867 5867 5867 5866 5866 5865 5865 5864 5864 5863 5862 5861 5861 5860 5860 5860 5860 5860 5860 5860 5860 5860 5861
5874 5875 5877 5877 5878 5879 5880 5879 5879 5877 5877 5876 5876 5875 5874 5873 5873 5871 5870 5869 5869 5869 5868 5867 5867 5866 5865 5865 5865 5864 5863 5863 5863 5862 5861 5861 5860 5859 5858 5858 5857 5857 5857 5857 5857 5857 5858 5858 5858
5874 5875 5876 5878 5878 5878 5879 5878 5876 5876 5876 5875 5874 5873 5871 5871 5870 5869 5868 5867 5867 5866 5866 5865 5865 5864 5863 5863 5862 5862 5861 5861 5860 5860 5859 5858 5857 5857 5856 5855 5855 5855 5855 5855 5855 5855 5855 5855 5855
5872 5874 5875 5876 5877 5877 5877 5876 5874 5874 5874 5872 5872 5870 5869 5868 5867 5867 5866 5865 5864 5864 5863 5863 5862 5862 5861 5860 5860 5859 5859 5858 5858 5857 5856 5856 5855 5854 5854 5853 5852 5852 5852 5852 5852 5852 5852 5852 5852
5872 5873 5875 5876 5877 5876 5876 5874 5873 5872 5871 5870 5869 5868 5867 5866 5865 5865 5863 5863 5862 5861 5861 5860 5859 5859 5859 5858 5857 5857 5856 5856 5855 5854 5854 5853 5852 5852 5851 5851 5850 5849 5849 5849 5849 5849 5849 5849 5849
5872 5872 5874 5876 5876 5875 5873 5872 5871 5869 5869 5867 5866 5864 5864 5863 5862 5862 5861 5860 5859 5857 5857 5857 5856 5856 5856 5855 5855 5854 5854 5853 5852 5851 5851 5850 5849 5849 5848 5848 5847 5847 5846 5846 5846 5846 5846 5846 5846
5870 5872 5872 5874 5875 5873 5871 5869 5868 5867 5866 5864 5862 5861 5860 5860 5859 5859 5858 5857 5856 5854 5853 5853 5854 5853 5853 5852 5852 5851 5850 5850 5849 5848 5847 5847 5846 5845 5845 5845 5844 5844 5843 5843 5843 5843 5843 5842 5842
5869 5871 5871 5873 5873 5870 5869 5868 5866 5864 5863 5861 5860 5859 5858 5857 5856 5855 5855 5854 5853 5852 5851 5850 5850 5850 5850 5849 5849 5848 5847 5846 5845 5844 5843 5843 5843 5842 5842 5841 5841 5840 5840 5840 5840 5840 5839 5839 5838
5869 5870 5871 5871 5870 5868 5867 5866 5863 5861 5860 5859 5858 5855 5854 5854 5853 5852 5851 5850 5849 5849 5848 5848 5847 5847 5847 5846 5845 5844 5844 5843 5842 5841 5839 5839 5839 5838 5838 5838 5837 5837 5836 5836 5836 5836 5836 5835 5835
5867 5868 5868 5867 5867 5865 5864 5862 5860 5858 5856 5856 5854 5852 5851 5851 5849 5848 5847 5847 5846 5845 5844 5844 5844 5843 5842 5842 5842 5841 5840 5839 5838 5838 5837 5836 5835 5835 5834 5834 5833 5833 5833 5833 5833 5832 5832 5831 5831
5867 5867 5866 5865 5864 5863 5862 5859 5857 5855 5853 5852 5850 5848 5847 5847 5846 5844 5843 5843 5842 5841 5840 5840 5840 5839 5839 5838 5837 5837 5836 5835 5835 5834 5833 5831 5831 5831 5830 5830 5829 5829 5828 5828 5828 5828 5827 5827 5827
5867 5867 5866 5863 5862 5861 5859 5856 5854 5852 5850 5848 5847 5845 5843 5843 5842 5840 5839 5838 5837 5837 5835 5835 5837 5836 5835 5834 5833 5833 5832 5831 5831 5830 5829 5828 5827 5826 5826 5826 5825 5824 5824 5824 5824 5823 5823 5823 5822
5866 5866 5865 5863 5861 5859 5856 5854 5852 5849 5847 5845 5844 5842 5840 5838 5837 5835 5835 5834 5833 5833 5831 5831 5833 5832 5831 5830 5829 5828 5827 5827 5826 5825 5824 5823 5822 5822 5821 5820 5820 5820 5819 5819 5819 5819 5819 5818 5818
5864 5864 5863 5862 5860 5858 5855 5851 5849 5846 5844 5842 5840 5838 5837 5835 5833 5831 5831 5830 5830 5829 5829 5828 5828 5827 5826 5826 5824 5824 5823 5822 5821 5820 5819 5818 5817 5817 5816 5816 5815 5815 5814 5814 5814 5814 5814 5813 5813
5863 5863 5863 5862 5859 5856 5854 5850 5847 5843 5842 5839 5837 5835 5833 5830 5829 5828 5826 5826 5825 5825 5825 5824 5823 5822 5822 5821 5820 5819 5819 5817 5816 5815 5814 5813 5812 5812 5812 5811 5811 5810 5809 5809 5809 5809 5809 5808 5808
5863 5863 5862 5861 5857 5854 5852 5849 5845 5842 5840 5837 5835 5832 5830 5828 5826 5824 5823 5822 5820 5820 5819 5819 5818 5818 5818 5817 5816 5815 5814 5812 5811 5810 5809 5808 5807 5806 5806 5806 5806 5805 5805 5805 5804 5804 5804 5803 5802
5862 5861 5860 5859 5856 5853 5850 5847 5843 5840 5838 5836 5833 5829 5827 5825 5823 5821 5819 5817 5815 5814 5814 5814 5813 5813 5812 5811 5811 5810 5808 5807 5806 5804 5803 5802 5802 5801 5800 5800 5800 5800 5800 5800 5799 5799 5798 5798 5797
5859 5857 5856 5855 5853 5850 5847 5845 5842 5837 5835 5832 5830 5827 5824 5822 5819 5817 5814 5812 5811 5810 5809 5809 5808 5807 5807 5806 5805 5804 5803 5802 5800 5799 5798 5797 5796 5795 5795 5794 5794 5794 5794 5794 5794 5793 5792 5792 5791
5856 5854 5853 5852 5849 5845 5843 5841 5839 5835 5831 5829 5827 5825 5822 5819 5815 5812 5810 5808 5806 5805 5804 5803 5802 5801 5801 5800 5799 5798 5797 5796 5794 5793 5792 5791 5791 5790 5789 5788 5788 5789 5789 5788 5788 5788 5787 5786 5785
5854 5852 5849 5847 5845 5842 5840 5838 5835 5832 5829 5826 5823 5821 5818 5815 5811 5808 5806 5803 5802 5800 5799 5798 5797 5795 5794 5794 5793 5792 5791 5790 5789 5788 5787 5786 5785 5784 5784 5783 5783 5783 5783 5782 5782 5781 5781 5780 5779
5850 5848 5845 5843 5841 5840 5838 5835 5831 5828 5825 5822 5820 5817 5814 5810 5806 5803 5801 5798 5796 5795 5793 5792 5790 5789 5789 5788 5787 5787 5786 5785 5784 5782 5781 5780 5780 5779 5778 5778 5777 5777 5777 5776 5775 5775 5775 5774 5773
5846 5844 5842 5840 5839 5837 5836 5834 5829 5824 5822 5820 5817 5814 5810 5806 5802 5799 5797 5794 5791 5789 5788 5786 5785 5784 5784 5782 5782 5781 5780 5779 5778 5777 5776 5775 5774 5773 5772 5772 5772 5771 5771 5770 5770 5769 5768 5768 5767
5843 5841 5840 5838 5837 5835 5833 5832 5827 5822 5819 5817 5814 5810 5807 5802 5798 5794 5792 5790 5787 5784 5783 5781 5780 5780 5779 5778 5777 5775 5775 5774 5773 5772 5771 5770 5769 5768 5767 5767 5767 5766 5765 5765 5764 5763 5762 5761 5760
5841 5840 5838 5836 5835 5833 5830 5828 5824 5820 5817 5815 5811 5807 5804 5800 5796 5792 5789 5786 5783 5780 5779 5777 5776 5775 5774 5773 5772 5771 5770 5768 5768 5767 5766 5765 5764 5763 5762 5762 5761 5761 5760 5759 5758 5757 5756 5755 5754
5838 5837 5836 5834 5832 5830 5827 5824 5821 5817 5814 5811 5808 5804 5800 5797 5793 5790 5786 5783 5780 5778 5776 5774 5773 5772 5770 5769 5768 5766 5765 5763 5762 5762 5760 5759 5758 5758 5757 5756 5756 5755 5754 5753 5752 5751 5750 5749 5747
5836 5834 5833 5831 5828 5827 5825 5821 5816 5813 5811 5808 5805 5801 5798 5794 5791 5787 5783 5780 5778 5775 5773 5771 5770 5769 5767 5765 5763 5762 5760 5759 5757 5757 5755 5754 5753 5753 5752 5751 5750 5749 5748 5747 5746 5745 5744 5742 5741
5834 5832 5830 5828 5826 5824 5822 5818 5814 5811 5808 5805 5802 5798 5795 5792 5788 5785 5781 5778 5776 5773 5771 5768 5767 5766 5764 5761 5759 5757 5756 5755 5754 5753 5751 5750 5749 5748 5747 5746 5745 5744 5742 5741 5740 5738 5737 5736 5734
5831 5830 5827 5826 5823 5821 5818 5817 5811 5808 5805 5802 5798 5795 5792 5788 5785 5781 5778 5776 5773 5770 5768 5766 5764 5762 5760 5758 5756 5754 5752 5751 5749 5748 5747 5746 5744 5743 5742 5741 5739 5738 5737 5735 5734 5732 5731 5729 5727
5828 5827 5825 5823 5821 5818 5816 5816 5808 5805 5802 5799 5796 5793 5790 5786 5781 5778 5776 5773 5770 5768 5766 5764 5762 5759 5757 5755 5753 5751 5749 5747 5746 5744 5743 5742 5740 5739 5737 5736 5734 5733 5732 5730 5729 5727 5725 5723 5721